Location: Arrington
(35.8681°N, 86.7092°W)
Time: 13:07:32
(UTC+00:00)

STARLINK 1039 - Pass Details

Date: 23 November 2019
Orbit: 448 x 450 km, 53.0° (Epoch: 10 December)

Event Time Altitude Azimuth Distance (km) Brightness Sun altitude
Exits shadow 11:27:03 16° 247° (WSW) 1,272 5.0 -12.9°
Maximum altitude 11:29:42 49° 320° (NW) 594 3.4 -12.4°
Drops below altitude 10° 11:33:13 10° 36° (NE) 1,610 6.3 -11.7°
Sets 11:35:26 0° 42° (NE) 2,501 7.3 -11.3°
